Sioux City, IA

2:19 AM CST on December 06, 2019 (GMT -0600)
Sioux Gateway

Weather History for KSUX - October, 2019

Change the Weather History Date:

Wednesday, October 16, 2019

  Actual Average Record
Temperature  
Mean Temperature 45 °F 51 °F  
Max Temperature 55 °F 64 °F 88 °F (1910)
Min Temperature 35 °F 38 °F 22 °F (1976)
Degree Days  
Heating Degree Days 20 14  
Month to date heating degree days 265 188  
Since 1 July heating degree days 301 335  
Cooling Degree Days 0 0  
Month to date cooling degree days 0 8  
Year to date cooling degree days 910 869  
Moisture  
Dew Point 35 °F    
Average Humidity 71    
Maximum Humidity 92    
Minimum Humidity 50    
Precipitation  
Precipitation 0.00 in 0.07 in 2.32 in (1968)
Month to date precipitation 2.17 1.30  
Year to date precipitation 30.28 24.80  
Snow  
Snow 0.00 in 0.00 in 1.50 in (2002)
Month to date snowfall T 0.2  
Since 1 July snowfall T 0.2  
Since 1 September snowfall T 0.2  
Snow Depth 0.00 in    
Sea Level Pressure  
Sea Level Pressure 30.16 in    
Wind  
Wind Speed 8 mph ()    
Max Wind Speed 21 mph    
Max Gust Speed 27 mph    
Visibility 10.0 miles    
Events      
T = Trace of Precipitation, MM = Missing Value Source: Averaged Metar Reports

Daily Weather History Graph

Daily Weather History Graph

Search for Another Location

Airport or City:

Astronomy

Oct. 16, 2019 Rise Set
Actual Time 7:39 AM CDT 6:42 PM CDT
Civil Twilight 7:10 AM CDT 7:10 PM CDT
Nautical Twilight 6:38 AM CDT 7:43 PM CDT
Astronomical Twilight 6:05 AM CDT 8:15 PM CDT
Moon 8:33 PM CDT (10/16) 10:13 AM CDT (10/16)
Length of Visible Light 11h 59m
Length of Day
11h 02m
Waning Gibbous, 92% of the Moon is Illuminated
Oct 16
Waning Gibbous
Oct 21
Last Quarter
Oct 27
New
Nov 4
First Quarter
Nov 12
Full

Hourly Weather History & Observations

Time (CDT) Temp. Windchill Dew Point Humidity Pressure Visibility Wind Dir Wind Speed Gust Speed Precip Events Conditions
12:52 AM 43.0 °F 35.7 °F 36.0 °F 76% 30.22 in 10.0 mi NNW 15.0 mph 21.9 mph N/A   Overcast
1:52 AM 43.0 °F 36.8 °F 35.1 °F 74% 30.22 in 10.0 mi NW 11.5 mph - N/A   Overcast
2:52 AM 42.1 °F 35.2 °F 34.0 °F 73% 30.22 in 10.0 mi NNW 12.7 mph - N/A   Overcast
3:52 AM 42.1 °F 34.9 °F 34.0 °F 73% 30.22 in 10.0 mi NNW 13.8 mph - N/A   Overcast
4:52 AM 41.0 °F 32.8 °F 33.1 °F 73% 30.22 in 10.0 mi North 16.1 mph - N/A   Overcast
5:52 AM 41.0 °F 34.3 °F 34.0 °F 76% 30.23 in 10.0 mi North 11.5 mph - N/A   Overcast
6:52 AM 41.0 °F 34.7 °F 33.1 °F 73% 30.23 in 10.0 mi NNW 10.4 mph - N/A   Overcast
7:52 AM 39.9 °F 32.9 °F 33.1 °F 77% 30.23 in 10.0 mi NNW 11.5 mph - N/A   Overcast
8:52 AM 41.0 °F 35.8 °F 34.0 °F 76% 30.24 in 10.0 mi NNW 8.1 mph - N/A   Overcast
9:52 AM 41.0 °F 34.7 °F 34.0 °F 76% 30.25 in 10.0 mi NNW 10.4 mph - N/A   Overcast
10:52 AM 42.1 °F 37.1 °F 34.0 °F 73% 30.25 in 10.0 mi NNW 8.1 mph - N/A   Overcast
11:52 AM 43.0 °F 41.3 °F 34.0 °F 71% 30.24 in 10.0 mi Variable 3.5 mph - N/A   Overcast
12:50 PM 46.4 °F 44.3 °F 35.6 °F 66% 30.18 in 10.0 mi NW 4.6 mph - N/A   Scattered Clouds
12:52 PM 46.9 °F - 35.1 °F 63% 30.20 in 10.0 mi NNW 4.6 mph - N/A   Partly Cloudy
1:52 PM 50.0 °F - 36.0 °F 59% 30.18 in 10.0 mi Calm Calm - N/A   Clear
2:52 PM 51.1 °F - 35.1 °F 54% 30.14 in 10.0 mi Calm Calm - N/A   Clear
3:52 PM 53.1 °F - 36.0 °F 52% 30.11 in 10.0 mi SSE 3.5 mph - N/A   Clear
4:52 PM 53.1 °F - 36.0 °F 52% 30.09 in 10.0 mi Calm Calm - N/A   Clear
5:52 PM 51.1 °F - 37.0 °F 59% 30.08 in 10.0 mi SSE 4.6 mph - N/A   Clear
6:52 PM 48.0 °F - 37.0 °F 66% 30.07 in 10.0 mi SE 8.1 mph - N/A   Clear
7:52 PM 43.0 °F 40.3 °F 35.1 °F 74% 30.07 in 10.0 mi ESE 4.6 mph - N/A   Clear
8:52 PM 41.0 °F 38.0 °F 34.0 °F 76% 30.07 in 10.0 mi SE 4.6 mph - N/A   Clear
9:52 PM 37.9 °F 32.7 °F 34.0 °F 86% 30.06 in 10.0 mi ESE 6.9 mph - N/A   Clear
10:52 PM 37.0 °F 31.6 °F 33.1 °F 86% 30.06 in 10.0 mi ESE 6.9 mph - N/A   Clear
11:52 PM 36.0 °F 29.6 °F 33.1 °F 89% 30.04 in 10.0 mi SE 8.1 mph - N/A   Clear